Regional Weather Roundup
Issued by NWS Upton, NY

Home | Current Version | Previous Version | Text Only | Print | Product List | Glossary On
Versions: 1 2 3 4 5 6 7 8 9 10 11 12 13 14 15 16 17 18 19 20 21 22 23 24 25 26 27
000
ASUS41 KOKX 260608
RWROKX

REGIONAL WEATHER ROUNDUP
NATIONAL WEATHER SERVICE NEW YORK NY
200 AM EDT SUN MAR 26 2017

NOTE: "FAIR" INDICATES FEW OR NO CLOUDS BELOW 12,000 FEET WITH NO
SIGNIFICANT WEATHER AND/OR OBSTRUCTIONS TO VISIBILITY.

NYZ071-072-176-178-NJZ106-104-260700-
NEW YORK CITY METRO AREA

CITY           SKY/WX    TMP DP  RH WIND       PRES   REMARKS
Central Park   CLOUDY    42  33  70 E9G20     30.42S
Wall St Helipt CLOUDY    43  33  68 NE14G25   30.41R
LaGuardia APRT CLOUDY    43  33  68 NE14      30.41R
Kennedy INTL   CLOUDY    43  36  76 NE13      30.41S
Breezy Point     N/A     41 N/A N/A NE8         N/A
Newark/Liberty CLOUDY    43  33  68 E14G20    30.40R
Teterboro      CLOUDY    43  36  76 E8        30.40S
$$

NYZ177-179-078>081-260700-
LONG ISLAND NEW YORK

CITY           SKY/WX    TMP DP  RH WIND       PRES   REMARKS
Jones Beach      N/A     39 N/A N/A E9          N/A  WCI  33
Matinecock PT    N/A     37 N/A N/A E16         N/A  WCI  28
Farmingdale    CLOUDY    40  35  83 NE8       30.40F WCI  34
MacArthur/ISP  CLOUDY    40  36  86 NE10      30.41R WCI  33
Shirley        CLOUDY    40  36  86 CALM      30.42S
Westhampton    CLOUDY    40  34  79 NE6       30.43S
East Hampton     N/A     37  33  83 NE5       30.41F WCI  34
Montauk          N/A     38  35  89 NE6       30.43S WCI  33
$$

NYZ052-065-067-260700-
HUDSON VALLEY

CITY           SKY/WX    TMP DP  RH WIND       PRES   REMARKS
White Plains   CLOUDY    40  33  76 E9        30.40R WCI  34
Newburgh       CLOUDY    36  34  93 E7        30.42S WCI  30
Montgomery     CLOUDY    36  32  85 NE8       30.40F WCI  30
Poughkeepsie   CLOUDY    35  32  88 N3        30.43R
Albany         CLOUDY    29  21  72 N5        30.46S WCI  24
$$

NJZ001-105-106-008-010-013-015-019>022-104-260700-
NEW JERSEY

CITY           SKY/WX    TMP DP  RH WIND       PRES   REMARKS
Newark/Liberty CLOUDY    43  33  68 E14G20    30.40R
Teterboro      CLOUDY    43  36  76 E8        30.40S
Caldwell       CLOUDY    40  36  86 E9        30.41R WCI  34
Somerville     CLOUDY    44  38  79 E6        30.37S
Linden         CLOUDY    44  35  72 E13       30.40R
Sussex         CLOUDY    36  33  89 NE6       30.40S WCI  31
Andover          N/A     36  33  89 NE8       30.39R WCI  30
Trenton        CLOUDY    43  39  86 E9        30.36S
Millville      CLOUDY    46  40  79 E10       30.31S
Atlantic City  CLOUDY    45  38  76 NE15G22   30.33R
Wrightstown    CLOUDY    42  38  86 NE10      30.34S
Toms River     CLOUDY    42  39  89 NE10G17   30.38R
Belmar         CLOUDY    41  38  89 E9G20     30.39S
$$

PAZ047>061-062-071-260700-
EASTERN PENNSYLVANIA

CITY           SKY/WX    TMP DP  RH WIND       PRES   REMARKS
Philadelphia   CLOUDY    45  38  76 E15G22    30.35S
Allentown      CLOUDY    42  34  73 NE16      30.36S
Scranton       CLOUDY    41  36  82 NE3       30.33R
$$

CTZ002-004>006-009-010-012-RIZ004-006-007-MAZ004-011-015-260700-
SOUTHERN NEW ENGLAND
 IN CT

CITY           SKY/WX    TMP DP  RH WIND       PRES   REMARKS
Bradley INTL   CLOUDY    32  31  96 N5        30.44R WCI  27
Hartford       CLOUDY    30  30 100 N3        30.44S FOG
Danbury        CLOUDY    38  33  82 NE8       30.42R WCI  32
Wtrbury/Oxford CLOUDY    36  28  75 NE5       30.41R WCI  32
Bridgeport     CLOUDY    39  33  79 NE9       30.42S WCI  33
Meriden        CLOUDY    35  31  85 N5        30.43S WCI  31
New Haven      CLOUDY    32  32 100 N3        30.43S
Chester        NOT AVBL
Groton         PTCLDY    33  31  92 CALM      30.43R
Wilimantic     FOG       30  28  92 CALM      30.44R VSB 3/4

 IN RI

CITY           SKY/WX    TMP DP  RH WIND       PRES   REMARKS
Providence     CLEAR     32  27  81 N6        30.44R WCI  26
Block Island   CLOUDY    37  34  89 NE8       30.42F WCI  31
Westerly       CLOUDY    33  32  96 CALM      30.43R
 IN MA

CITY           SKY/WX    TMP DP  RH WIND       PRES   REMARKS
Boston         CLOUDY    33  28  81 N6        30.45R WCI  28
Worcester      CLEAR     31  23  72 N7        30.39S WCI  24
Westfield      CLOUDY    29  28  96 N5        30.43S WCI  24
Provincetown   CLOUDY    37  35  92 N7        30.44R WCI  32
Nantucket      MOCLDY    34  32  92 N7        30.42R WCI  28
$$

ANZ330-335-338-340-345-350-353-355-260700-
COASTAL MARINE OBSERVATIONS


STATION/POSITION TIME  SKY/WX   TEMP    WIND        PRES    VSBY  WAVE
                                AIR SEA DIR/SP/G                  HT/PER
                 (UTC)          (F)     (DEG/KT/KT) (MB)    (MI)  (FT/S)
NY HARB ENTRANCE 0450            42 42   70/ 14/ 17 1029.0          4/ 7
20 S FIRE ISLAND 0550            41 40   60/ 14/ 17 1028.8          4/ 7
GREAT SOUTH BAY  NOT AVBL
23 SSW MONTAUK P 0450            40 43              1030.2          4/ 8
15 E BARNEGAT LI 0530               42                N/A           4/ 5
HUDSON CANYON    0450            43 45   60/ 19/ 23 1027.5          5/ 7
KINGS POINT      0548               38              1029.6
EXECUTION ROCKS  NOT AVBL
CENTRAL LI SOUND 0530            39      20/  6/  8   N/A           1
EASTERN LI SOUND NOT AVBL
ROBBINS REEF     0548                    60/ 17/ 22 1029.4
$$


>>>>>>>>>>>>>>>>>>>>>>>>>>>> KEY <<<<<<<<<<<<<<<<<<<<<<<<<<<
>                                                          <
>     SKY/WX - Sky Condition/Present Weather               <
>     TMP    - Temperature in Fahrenheit                   <
>     DP     - Dew Point in Fahrenheit                     <
>     RH     - Relative Humidity in Percent                <
>     WIND   - Direction (from) and Speed in MPH           <
>     PRES   - Mean Sea Level Pressure (inches of Hg)      <
>     WCI    - Wind Chill Index                            <
>     VSB    - VISIBILITY IN MILES                         <
>     HX     - HEAT INDEX                                  <
>     TC     - TEMPERATURE IN CELSIUS                      <
>     VRB    - VARIABLE WIND DIRECTION                     <
>                                                          <
>>>>>>>>>>>>>>>>>>>>>>>>>>>> KEY <<<<<<<<<<<<<<<<<<<<<<<<<<<




USA.gov is the U.S. government's official web portal to all federal, state and local government web resources and services.